Tracking 27172 objects as of 2-Apr-2023
HD Live streaming from Space Station
objects crossing your sky now

SL-16 DEB

Track SL-16 DEB now!
10-day predictions


NORAD ID: 22396
Int'l Code: 1992-093CM
Perigee: 480.3 km
Apogee: 501.2 km
Inclination: 70.6 °
Period: 94.3 minutes
Semi major axis: 6861 km
RCS: 0.0314 m2 (small)
Launch date: December 25, 1992
Source: Commonwealth of Independent States (former USSR) (CIS)
Launch site: TYURATAM MISSILE AND SPACE COMPLEX (TTMTR)

Note: This is SATELLITE DEBRIS
Your satellite tracking list
Your tracking list is empty




NASA's NSSDC Master Catalog

Two Line Element Set (TLE):
1 22396U 92093CM  23092.11061555  .00346990  00000-0  12292-1 0  9993
2 22396  70.6365 356.2946 0015225 168.7148 191.4375 15.27397363591603
Source of the keplerian elements: AFSPC